Location: Newark
(5.5500°N, 0.2500°W)
Time: 07:12:53
(UTC+00:00)

Hubble Space Telescope - Pass Details

Date: 25 September 2019
Orbit: 536 x 540 km, 28.5° (Epoch: 22 October)

Event Time Altitude Azimuth Distance (km) Brightness Sun altitude
Rises 18:59:17 0° 245° (WSW) 2,671 5.5 -16.7°
Reaches altitude 10° 19:01:33 10° 247° (WSW) 1,779 4.4 -17.2°
Maximum altitude 19:05:39 69° 331° (NNW) 570 0.9 -18.3°
Enters shadow 19:07:16 35° 44° (NE) 876 1.5 -18.7°
